Weather in Böblingen

Germany     48°41′25″N   9°01′10″E
В апреле 2022 года жителям России запретили посещать сайт meteo.paraplan.net по решению Генеральной прокуратуры. Аудитория сайта уменьшилась в 10 раз. Владельцы сайта не видят смысла в поддержке погодного сервера в таких условиях. Сайт будет закрыт в октябре.
temp.,
°C
wind,
m/s
gust,
m/s
humid.,
%
clouds,
%
prec.,
mm/h
press.,
hPa
HPBL,
m
4 october, tue
tue423:00+8se118812 0.0 102617
02:00+7s229332 0.0 102518
05:00+6s2294100 0.0 102421
08:00+7s1290100 0.0 102431
11:00+11sse2371100 0.0 1023246
14:00+15sse235888 0.0 1022459
17:00+16sse23625 0.0 1021417
20:00+11ssw11805 0.0 102210
5 october, wed
wed523:00+10s3386100 0.0 102239
02:00+9ssw2384100 0.0 102338
05:00+8ssw227984 0.0 102221
08:00+8ssw238097 0.0 102257
11:00+16ssw366397 0.0 1021246
14:00+21sw364997 0.0 10191054
17:00+21sw136233 0.0 1019115
20:00+14sw367640 0.0 102183
6 october, thu
thu623:00+12ssw3979100 0.0 1023137
02:00+12ssw39834 0.0 1024142
05:00+12wsw37823 0.0 1025118
08:00+12w498549 0.0 1029403
11:00+15wnw467241 0.0 1031958
14:00+16nw345455 0.1 10321197
17:00+15n225371 0.0 1031920
20:00+10ne11682 0.0 103212
7 october, fri
fri723:00+8ese11731 0.0 103211
02:00+8s11810 0.0 103011
05:00+7s22863 0.0 102915
08:00+7s22885 0.0 102830
11:00+14s23706 0.0 1026363
14:00+18sw13626 0.0 1023877
17:00+17nnw32685 0.0 1022353
20:00+12nw118946 0.0 102310
8 october, sat
sat823:00+11ssw11925 0.0 102312
02:00+10wsw119344 0.0 102310
05:00+9w119484 0.0 102310
08:00+9wsw009529 0.0 102411
11:00+14ene117735 0.0 1024455
14:00+17ese116225 0.0 10221046
17:00+17ne216354 0.0 1021691
20:00+11n117077 0.0 102216